Weather History for KPVC - June, 2013

Change the Weather History Date:

Sunday, June 16, 2013

  Actual Average Record
Temperature  
Mean Temperature 65 °F -  
Max Temperature 73 °F 69 °F 92 °F (1957)
Min Temperature 57 °F 55 °F 46 °F (1997)
Growing Degree Days 15 (Base 50)    
Moisture  
Dew Point 55 °F    
Average Humidity 74    
Maximum Humidity 94    
Minimum Humidity 47    
Precipitation  
Precipitation 0.00 in - - ()
Sea Level Pressure  
Sea Level Pressure 29.88 in    
Wind  
Wind Speed 10 mph (SW)    
Max Wind Speed 20 mph    
Max Gust Speed 25 mph    
Visibility 10 miles    
Events      
Averages and records for this station are not official NWS values.
T = Trace of Precipitation, MM = Missing Value Source: NWS Daily Summary

Daily Weather History Graph

Daily Weather History Graph

Search for Another Location

Airport or City:

Trip Planner

Search our weather history database for the weather conditions in past years. The results will help you decide how hot, cold, wet, or windy it might be!

Date:

Astronomy

Jun. 16, 2013 Rise Set
Actual Time 5:04 AM EDT 8:18 PM EDT
Civil Twilight 4:29 AM EDT 8:53 PM EDT
Nautical Twilight 3:45 AM EDT 9:37 PM EDT
Astronomical Twilight 2:51 AM EDT 10:31 PM EDT
Moon 12:44 PM EDT (6/16) 12:15 AM EDT (6/16)
Length of Visible Light 16h 23m
Length of Day
15h 14m
Waxing Crescent, 49% of the Moon is Illuminated
Jun 16
Waxing Crescent
Jun 16
First Quarter
Jun 23
Full
Jun 30
Last Quarter
Jul 8
New

Hourly Weather History & Observations

Time (EDT) Temp. Dew Point Humidity Pressure Visibility Wind Dir Wind Speed Gust Speed Precip Events Conditions
12:15 AM 60.8 °F 55.4 °F 82% 29.95 in 10.0 mi SW 5.8 mph - N/A   Clear
12:35 AM 59.0 °F 55.4 °F 88% 29.95 in 10.0 mi SSW 8.1 mph - N/A   Clear
12:55 AM 60.8 °F 55.4 °F 82% 29.95 in 10.0 mi SW 9.2 mph - N/A   Clear
1:15 AM 59.0 °F 55.4 °F 88% 29.94 in 10.0 mi SW 9.2 mph - N/A   Clear
1:35 AM 59.0 °F 55.4 °F 88% 29.94 in 10.0 mi SW 8.1 mph - N/A   Clear
1:55 AM 57.2 °F 53.6 °F 88% 29.93 in 10.0 mi SW 8.1 mph - N/A   Clear
2:15 AM 59.0 °F 53.6 °F 82% 29.94 in 10.0 mi SW 8.1 mph - N/A   Clear
2:35 AM 59.0 °F 53.6 °F 82% 29.94 in 10.0 mi WSW 9.2 mph - N/A   Clear
2:55 AM 57.2 °F 53.6 °F 88% 29.94 in 10.0 mi WSW 9.2 mph - N/A   Clear
3:15 AM 57.2 °F 53.6 °F 88% 29.95 in 10.0 mi WSW 8.1 mph - N/A   Clear
3:35 AM 57.2 °F 53.6 °F 88% 29.94 in 10.0 mi WSW 8.1 mph - N/A   Clear
3:55 AM 57.2 °F 53.6 °F 88% 29.94 in 10.0 mi SW 9.2 mph - N/A   Clear
4:15 AM 57.2 °F 53.6 °F 88% 29.94 in 10.0 mi SW 5.8 mph - N/A   Clear
4:35 AM 57.2 °F 53.6 °F 88% 29.94 in 10.0 mi SW 5.8 mph - N/A   Clear
4:55 AM 57.2 °F 53.6 °F 88% 29.94 in 10.0 mi SW 6.9 mph - N/A   Clear
5:15 AM 57.2 °F 53.6 °F 88% 29.94 in 10.0 mi SSW 5.8 mph - N/A   Clear
5:35 AM 57.2 °F 53.6 °F 88% 29.94 in 10.0 mi SW 5.8 mph - N/A   Clear
5:55 AM 57.2 °F 53.6 °F 88% 29.94 in 10.0 mi SW 5.8 mph - N/A   Clear
6:15 AM 60.8 °F 55.4 °F 82% 29.95 in 10.0 mi SW 5.8 mph - N/A   Clear
6:35 AM 60.8 °F 55.4 °F 82% 29.95 in 10.0 mi SW 8.1 mph - N/A   Clear
6:55 AM 62.6 °F 55.4 °F 77% 29.95 in 10.0 mi SW 8.1 mph - N/A   Clear
7:15 AM 62.6 °F 55.4 °F 77% 29.95 in 10.0 mi SSW 6.9 mph - N/A   Clear
7:35 AM 62.6 °F 55.4 °F 77% 29.95 in 10.0 mi SW 10.4 mph - N/A   Clear
7:55 AM 64.4 °F 55.4 °F 73% 29.95 in 10.0 mi WSW 10.4 mph - N/A   Clear
8:15 AM 64.4 °F 53.6 °F 68% 29.95 in 10.0 mi WSW 10.4 mph - N/A   Clear
8:35 AM 66.2 °F 53.6 °F 64% 29.95 in 10.0 mi WSW 10.4 mph - N/A   Clear
8:55 AM 66.2 °F 53.6 °F 64% 29.95 in 10.0 mi WSW 10.4 mph - N/A   Clear
9:15 AM 68.0 °F 51.8 °F 56% 29.94 in 10.0 mi SW 10.4 mph - N/A   Clear
9:35 AM 68.0 °F 53.6 °F 60% 29.95 in 10.0 mi WSW 11.5 mph - N/A   Clear
9:55 AM 69.8 °F 51.8 °F 53% 29.94 in 10.0 mi SW 11.5 mph - N/A   Clear
10:15 AM 71.6 °F 51.8 °F 50% 29.94 in 10.0 mi WSW 10.4 mph - N/A   Clear
10:35 AM 71.6 °F 53.6 °F 53% 29.94 in 10.0 mi SW 10.4 mph - N/A   Clear
10:55 AM 73.4 °F 53.6 °F 50% 29.93 in 10.0 mi SSW 9.2 mph - N/A   Clear
11:15 AM 73.4 °F 51.8 °F 47% 29.93 in 10.0 mi SSW 10.4 mph - N/A   Clear
11:35 AM 73.4 °F 51.8 °F 47% 29.92 in 10.0 mi SSW 8.1 mph - N/A   Clear
11:55 AM 73.4 °F 53.6 °F 50% 29.91 in 10.0 mi SSW 9.2 mph - N/A   Clear
12:15 PM 73.4 °F 53.6 °F 50% 29.91 in 10.0 mi SSW 12.7 mph - N/A   Clear
12:35 PM 73.4 °F 55.4 °F 53% 29.90 in 10.0 mi SW 11.5 mph 17.3 mph N/A   Clear
12:55 PM 73.4 °F 51.8 °F 47% 29.89 in 10.0 mi SSW 12.7 mph 19.6 mph N/A   Clear
1:15 PM 71.6 °F 51.8 °F 50% 29.88 in 10.0 mi SSW 13.8 mph 18.4 mph N/A   Clear
1:35 PM 71.6 °F 53.6 °F 53% 29.88 in 10.0 mi SSW 15.0 mph 21.9 mph N/A   Partly Cloudy
1:55 PM 71.6 °F 51.8 °F 50% 29.87 in 10.0 mi SW 16.1 mph 20.7 mph N/A   Scattered Clouds
2:15 PM 69.8 °F 51.8 °F 53% 29.87 in 10.0 mi SSW 12.7 mph 20.7 mph N/A   Overcast
2:35 PM 69.8 °F 53.6 °F 56% 29.87 in 10.0 mi SSW 13.8 mph 19.6 mph N/A   Mostly Cloudy
2:55 PM 69.8 °F 55.4 °F 60% 29.86 in 10.0 mi SSW 13.8 mph 18.4 mph N/A   Mostly Cloudy
3:15 PM 68.0 °F 53.6 °F 60% 29.85 in 10.0 mi SSW 10.4 mph - N/A   Overcast
3:35 PM 68.0 °F 53.6 °F 60% 29.84 in 10.0 mi SSW 11.5 mph - N/A   Overcast
3:55 PM 69.8 °F 53.6 °F 56% 29.83 in 10.0 mi SSW 12.7 mph 19.6 mph N/A   Mostly Cloudy
4:15 PM 69.8 °F 53.6 °F 56% 29.82 in 10.0 mi SSW 11.5 mph - N/A   Mostly Cloudy
4:35 PM 66.2 °F 55.4 °F 68% 29.82 in 10.0 mi SSW 10.4 mph - N/A   Overcast
4:55 PM 66.2 °F 57.2 °F 73% 29.82 in 10.0 mi South 10.4 mph - N/A   Overcast
5:15 PM 64.4 °F 57.2 °F 77% 29.81 in 10.0 mi South 11.5 mph - N/A   Overcast
5:35 PM 66.2 °F 57.2 °F 73% 29.80 in 10.0 mi South 12.7 mph 18.4 mph N/A   Overcast
5:55 PM 66.2 °F 55.4 °F 68% 29.79 in 10.0 mi South 13.8 mph - N/A   Overcast
6:15 PM 66.2 °F 57.2 °F 73% 29.78 in 10.0 mi South 16.1 mph 23.0 mph N/A   Overcast
6:35 PM 66.2 °F 59.0 °F 78% 29.77 in 10.0 mi South 16.1 mph 21.9 mph N/A   Overcast
6:55 PM 64.4 °F 59.0 °F 83% 29.77 in 10.0 mi South 13.8 mph 19.6 mph N/A   Overcast
7:15 PM 64.4 °F 59.0 °F 83% 29.76 in 10.0 mi SSW 16.1 mph 19.6 mph N/A   Overcast
7:35 PM 64.4 °F 60.8 °F 88% 29.77 in 10.0 mi SW 16.1 mph 23.0 mph N/A   Mostly Cloudy
7:55 PM 64.4 °F 60.8 °F 88% 29.75 in 10.0 mi SW 19.6 mph - N/A   Scattered Clouds
8:15 PM 62.6 °F 60.8 °F 94% 29.76 in 9.0 mi SW 17.3 mph 25.3 mph N/A   Scattered Clouds
8:35 PM 62.6 °F 60.8 °F 94% 29.76 in 9.0 mi SW 17.3 mph 23.0 mph N/A   Mostly Cloudy
8:55 PM 62.6 °F 60.8 °F 94% 29.77 in 10.0 mi SW 15.0 mph - N/A   Overcast
9:15 PM 62.6 °F 60.8 °F 94% 29.77 in 9.0 mi SW 16.1 mph 20.7 mph N/A   Overcast
9:35 PM 62.6 °F 59.0 °F 88% 29.77 in 9.0 mi SSW 15.0 mph - N/A   Overcast
9:55 PM 62.6 °F 59.0 °F 88% 29.77 in 9.0 mi SSW 13.8 mph - N/A   Overcast
10:15 PM 62.6 °F 60.8 °F 94% 29.77 in 9.0 mi SSW 13.8 mph - N/A   Overcast
10:35 PM 62.6 °F 59.0 °F 88% 29.77 in 8.0 mi SW 13.8 mph 18.4 mph N/A   Overcast
10:55 PM 62.6 °F 59.0 °F 88% 29.77 in 8.0 mi SW 12.7 mph - N/A   Overcast
11:15 PM 62.6 °F 59.0 °F 88% 29.78 in 8.0 mi SW 12.7 mph - N/A   Overcast
11:35 PM 62.6 °F 59.0 °F 88% 29.78 in 8.0 mi SW 11.5 mph - N/A   Mostly Cloudy
11:55 PM 60.8 °F 59.0 °F 94% 29.78 in 7.0 mi SW 10.4 mph - N/A   Partly Cloudy